Time,TemperatureF,DewpointF,PressureIn,WindDirection,WindDirectionDegrees,WindSpeedMPH,WindSpeedGustMPH,Humidity,HourlyPrecipIn,Conditions,Clouds,dailyrainin,SoftwareType,DateUTC
2013-02-12 00:01:00,68.0,68.0,30.11,SSE,168,8.0,8.0,100,0.00,,,0.00,,2013-02-12 05:01:00,
2013-02-12 00:11:00,68.0,68.0,30.11,SSE,165,2.0,9.0,100,0.00,,,0.00,,2013-02-12 05:11:00,
2013-02-12 00:21:00,68.0,68.0,30.11,SSE,165,2.0,9.0,100,0.00,,,0.00,,2013-02-12 05:21:00,
2013-02-12 00:32:00,68.0,68.0,30.10,SSE,147,4.0,10.0,100,0.00,,,0.00,,2013-02-12 05:32:00,
2013-02-12 00:42:00,68.0,68.0,30.10,SSE,147,4.0,10.0,100,0.00,,,0.00,,2013-02-12 05:42:00,
2013-02-12 00:52:00,68.0,68.0,30.09,SSE,149,9.0,12.0,100,0.00,,,0.00,,2013-02-12 05:52:00,
2013-02-12 01:01:00,68.0,68.0,30.09,SSE,151,5.0,9.0,100,0.00,,,0.00,,2013-02-12 06:01:00,
2013-02-12 01:12:00,68.0,68.0,30.08,SE,143,7.0,13.0,100,0.00,,,0.00,,2013-02-12 06:12:00,
2013-02-12 01:22:00,68.0,68.0,30.08,SE,143,7.0,13.0,100,0.00,,,0.00,,2013-02-12 06:22:00,
2013-02-12 01:32:00,68.0,68.0,30.09,South,170,3.0,8.0,100,0.00,,,0.00,,2013-02-12 06:32:00,
2013-02-12 01:42:00,68.0,68.0,30.10,SSW,193,3.0,11.0,100,0.00,,,0.00,,2013-02-12 06:42:00,
2013-02-12 01:52:00,68.0,68.0,30.10,SSW,193,3.0,11.0,100,0.00,,,0.00,,2013-02-12 06:52:00,
2013-02-12 02:01:00,68.0,68.0,30.09,South,181,3.0,9.0,100,0.00,,,0.00,,2013-02-12 07:01:00,
2013-02-12 02:11:00,68.0,68.0,30.09,South,179,7.0,11.0,100,0.00,,,0.00,,2013-02-12 07:11:00,
2013-02-12 02:21:00,68.0,68.0,30.09,South,179,7.0,11.0,100,0.00,,,0.00,,2013-02-12 07:21:00,
2013-02-12 02:32:00,68.0,68.0,30.08,South,189,6.0,7.0,100,0.00,,,0.00,,2013-02-12 07:32:00,
2013-02-12 02:42:00,68.0,68.0,30.08,South,189,6.0,7.0,100,0.00,,,0.00,,2013-02-12 07:42:00,
2013-02-12 02:52:00,68.0,68.0,30.07,SSE,148,3.0,8.0,100,0.00,,,0.00,,2013-02-12 07:52:00,
2013-02-12 03:01:00,68.0,68.0,30.07,SSE,164,6.0,11.0,100,0.00,,,0.00,,2013-02-12 08:01:00,
2013-02-12 03:11:00,68.0,68.0,30.07,SSE,164,6.0,11.0,100,0.00,,,0.00,,2013-02-12 08:11:00,
2013-02-12 03:21:00,67.0,67.0,30.07,SSE,167,5.0,8.0,100,0.00,,,0.00,,2013-02-12 08:21:00,
2013-02-12 03:32:00,67.0,67.0,30.07,South,179,0.0,9.0,100,0.00,,,0.00,,2013-02-12 08:32:00,
2013-02-12 03:42:00,67.0,67.0,30.07,South,179,0.0,9.0,100,0.00,,,0.00,,2013-02-12 08:42:00,
2013-02-12 03:52:00,67.0,67.0,30.07,SSE,168,5.0,8.0,100,0.00,,,0.00,,2013-02-12 08:52:00,
2013-02-12 04:02:00,67.0,67.0,30.06,SSE,155,5.0,7.0,100,0.00,,,0.00,,2013-02-12 09:02:00,
2013-02-12 04:11:00,67.0,67.0,30.06,SSE,165,4.0,9.0,100,0.00,,,0.00,,2013-02-12 09:11:00,
2013-02-12 04:21:00,67.0,67.0,30.06,SSE,165,4.0,9.0,100,0.00,,,0.00,,2013-02-12 09:21:00,
2013-02-12 04:32:00,67.0,67.0,30.05,South,169,3.0,9.0,100,0.00,,,0.00,,2013-02-12 09:32:00,
2013-02-12 04:42:00,67.0,67.0,30.05,SSE,164,4.0,7.0,100,0.00,,,0.00,,2013-02-12 09:42:00,
2013-02-12 04:52:00,67.0,67.0,30.05,SSE,164,4.0,7.0,100,0.00,,,0.00,,2013-02-12 09:52:00,
2013-02-12 05:01:00,67.0,67.0,30.06,SSE,157,3.0,11.0,100,0.00,,,0.00,,2013-02-12 10:01:00,
2013-02-12 05:11:00,67.0,67.0,30.06,SSE,159,2.0,7.0,100,0.00,,,0.00,,2013-02-12 10:11:00,
2013-02-12 05:21:00,67.0,67.0,30.06,SSE,159,2.0,7.0,100,0.00,,,0.00,,2013-02-12 10:21:00,
2013-02-12 05:32:00,67.0,67.0,30.05,South,174,8.0,8.0,100,0.00,,,0.00,,2013-02-12 10:32:00,
2013-02-12 05:43:00,67.0,67.0,30.05,South,174,8.0,8.0,100,0.00,,,0.00,,2013-02-12 10:43:00,
2013-02-12 05:51:00,67.0,67.0,30.06,SSE,153,3.0,5.0,100,0.00,,,0.00,,2013-02-12 10:51:00,
2013-02-12 06:01:00,67.0,67.0,30.06,SSE,147,3.0,5.0,100,0.00,,,0.00,,2013-02-12 11:01:00,
2013-02-12 06:11:00,68.0,68.0,30.06,SE,139,3.0,8.0,100,0.00,,,0.00,,2013-02-12 11:11:00,
2013-02-12 06:22:00,68.0,68.0,30.06,SE,139,3.0,8.0,100,0.00,,,0.00,,2013-02-12 11:22:00,
2013-02-12 06:32:00,68.0,68.0,30.06,SSE,160,4.0,7.0,100,0.00,,,0.00,,2013-02-12 11:32:00,
2013-02-12 06:42:00,68.0,68.0,30.06,SSE,160,4.0,7.0,100,0.00,,,0.00,,2013-02-12 11:42:00,
2013-02-12 06:52:00,68.0,68.0,30.06,SSE,153,5.0,6.0,100,0.00,,,0.00,,2013-02-12 11:52:00,
2013-02-12 07:01:00,68.0,68.0,30.07,SSE,158,4.0,8.0,100,0.00,,,0.00,,2013-02-12 12:01:00,
2013-02-12 07:11:00,68.0,68.0,30.07,SSE,166,4.0,6.0,100,0.00,,,0.00,,2013-02-12 12:11:00,
2013-02-12 07:21:00,68.0,68.0,30.07,SSE,166,4.0,6.0,100,0.00,,,0.00,,2013-02-12 12:21:00,
2013-02-12 07:32:00,68.0,68.0,30.09,SSE,149,5.0,7.0,100,0.00,,,0.00,,2013-02-12 12:32:00,
2013-02-12 07:42:00,68.0,68.0,30.09,SSE,155,4.0,6.0,100,0.00,,,0.00,,2013-02-12 12:42:00,
2013-02-12 07:53:00,68.0,68.0,30.09,SSE,155,4.0,6.0,100,0.00,,,0.00,,2013-02-12 12:53:00,
2013-02-12 08:01:00,69.0,69.0,30.09,SSE,151,5.0,8.0,100,0.00,,,0.00,,2013-02-12 13:01:00,
2013-02-12 08:11:00,69.0,69.0,30.08,SSE,166,5.0,8.0,100,0.00,,,0.00,,2013-02-12 13:11:00,
2013-02-12 08:22:00,69.0,69.0,30.08,SSE,166,5.0,8.0,100,0.00,,,0.00,,2013-02-12 13:22:00,
2013-02-12 08:32:00,69.0,69.0,30.09,SSE,168,6.0,10.0,100,0.00,,,0.00,,2013-02-12 13:32:00,
2013-02-12 08:42:00,69.0,69.0,30.09,SSE,168,6.0,10.0,100,0.00,,,0.00,,2013-02-12 13:42:00,
2013-02-12 08:52:00,70.0,70.0,30.10,South,176,2.0,7.0,100,0.00,,,0.00,,2013-02-12 13:52:00,
2013-02-12 09:01:00,70.0,70.0,30.09,South,185,6.0,7.0,100,0.00,,,0.00,,2013-02-12 14:01:00,
2013-02-12 09:12:00,70.0,70.0,30.09,South,185,6.0,7.0,100,0.00,,,0.00,,2013-02-12 14:12:00,
2013-02-12 09:21:00,70.0,70.0,30.11,South,175,9.0,9.0,100,0.00,,,0.00,,2013-02-12 14:21:00,
2013-02-12 09:32:00,71.0,71.0,30.10,SSE,163,3.0,11.0,100,0.00,,,0.00,,2013-02-12 14:32:00,
2013-02-12 09:42:00,71.0,71.0,30.10,SSE,163,3.0,11.0,100,0.00,,,0.00,,2013-02-12 14:42:00,
2013-02-12 09:52:00,71.0,71.0,30.10,SSE,164,4.0,15.0,100,0.00,,,0.00,,2013-02-12 14:52:00,
2013-02-12 10:02:00,72.0,72.0,30.11,South,186,8.0,13.0,100,0.00,,,0.00,,2013-02-12 15:02:00,
2013-02-12 10:11:00,73.0,73.0,30.10,South,171,6.0,13.0,100,0.00,,,0.00,,2013-02-12 15:11:00,
2013-02-12 10:21:00,73.0,73.0,30.10,South,171,6.0,13.0,100,0.00,,,0.00,,2013-02-12 15:21:00,
2013-02-12 10:32:00,74.0,74.0,30.11,SE,143,4.0,14.0,100,0.00,,,0.00,,2013-02-12 15:32:00,
2013-02-12 10:42:00,74.0,74.0,30.11,SE,143,4.0,14.0,100,0.00,,,0.00,,2013-02-12 15:42:00,
2013-02-12 10:52:00,75.0,75.0,30.10,SSW,197,6.0,12.0,100,0.00,,,0.00,,2013-02-12 15:52:00,
2013-02-12 11:01:00,75.0,75.0,30.11,SE,143,7.0,13.0,100,0.00,,,0.00,,2013-02-12 16:01:00,
2013-02-12 11:11:00,75.0,75.0,30.11,SE,143,7.0,13.0,100,0.00,,,0.00,,2013-02-12 16:11:00,
2013-02-12 11:22:00,75.0,75.0,30.11,SSE,149,6.0,10.0,100,0.00,,,0.00,,2013-02-12 16:22:00,
2013-02-12 11:32:00,75.0,75.0,30.11,SSE,158,7.0,18.0,100,0.00,,,0.00,,2013-02-12 16:32:00,
2013-02-12 11:42:00,75.0,75.0,30.11,SSE,158,7.0,18.0,100,0.00,,,0.00,,2013-02-12 16:42:00,
2013-02-12 11:52:00,75.0,75.0,30.10,South,190,6.0,15.0,100,0.00,,,0.00,,2013-02-12 16:52:00,
2013-02-12 12:01:00,76.0,76.0,30.09,South,177,6.0,12.0,100,0.00,,,0.00,,2013-02-12 17:01:00,
2013-02-12 12:12:00,77.0,77.0,30.08,South,174,7.0,14.0,100,0.00,,,0.00,,2013-02-12 17:12:00,
2013-02-12 12:21:00,77.0,77.0,30.08,South,174,7.0,14.0,100,0.00,,,0.00,,2013-02-12 17:21:00,
2013-02-12 12:32:00,79.0,79.0,30.07,South,170,9.0,16.0,100,0.00,,,0.00,,2013-02-12 17:32:00,
2013-02-12 12:52:00,78.0,78.0,30.07,SSE,161,8.0,15.0,100,0.00,,,0.00,,2013-02-12 17:52:00,
2013-02-12 13:01:00,78.0,78.0,30.06,SSE,164,7.0,16.0,100,0.00,,,0.00,,2013-02-12 18:01:00,
2013-02-12 13:11:00,79.0,79.0,30.05,SSE,167,8.0,18.0,100,0.00,,,0.00,,2013-02-12 18:11:00,
2013-02-12 13:23:00,79.0,79.0,30.05,SSE,167,8.0,18.0,100,0.00,,,0.00,,2013-02-12 18:23:00,
2013-02-12 13:32:00,79.0,79.0,30.03,South,170,12.0,21.0,100,0.00,,,0.00,,2013-02-12 18:32:00,
2013-02-12 13:41:00,79.0,79.0,30.01,South,179,10.0,20.0,100,0.00,,,0.00,,2013-02-12 18:41:00,
2013-02-12 13:52:00,79.0,79.0,30.01,South,179,10.0,20.0,100,0.00,,,0.00,,2013-02-12 18:52:00,
2013-02-12 14:02:00,79.0,79.0,30.01,South,173,5.0,18.0,100,0.00,,,0.00,,2013-02-12 19:02:00,
2013-02-12 14:11:00,80.0,80.0,30.00,SE,129,11.0,20.0,100,0.00,,,0.00,,2013-02-12 19:11:00,
2013-02-12 14:21:00,80.0,80.0,30.00,SE,129,11.0,20.0,100,0.00,,,0.00,,2013-02-12 19:21:00,
2013-02-12 14:31:00,80.0,80.0,29.98,South,189,11.0,25.0,100,0.00,,,0.00,,2013-02-12 19:31:00,
2013-02-12 14:41:00,79.0,79.0,29.98,SE,130,12.0,22.0,100,0.00,,,0.00,,2013-02-12 19:41:00,
2013-02-12 14:52:00,79.0,79.0,29.98,SE,130,12.0,22.0,100,0.00,,,0.00,,2013-02-12 19:52:00,
2013-02-12 15:01:00,80.0,80.0,29.98,SSE,151,7.0,14.0,100,0.00,,,0.00,,2013-02-12 20:01:00,
2013-02-12 15:11:00,79.0,79.0,29.98,SSW,192,7.0,17.0,100,0.00,,,0.00,,2013-02-12 20:11:00,
2013-02-12 15:21:00,79.0,79.0,29.98,SSW,192,7.0,17.0,100,0.00,,,0.00,,2013-02-12 20:21:00,
2013-02-12 15:32:00,78.0,78.0,29.98,South,182,12.0,20.0,100,0.00,,,0.00,,2013-02-12 20:32:00,
2013-02-12 15:41:00,77.0,77.0,29.99,SSE,157,4.0,14.0,100,0.00,,,0.00,,2013-02-12 20:41:00,
2013-02-12 15:52:00,77.0,77.0,29.99,SSE,157,4.0,14.0,100,0.00,,,0.00,,2013-02-12 20:52:00,
2013-02-12 16:01:00,76.0,76.0,29.98,South,184,11.0,17.0,100,0.00,,,0.00,,2013-02-12 21:01:00,
2013-02-12 16:11:00,78.0,78.0,29.98,South,190,9.0,13.0,100,0.00,,,0.00,,2013-02-12 21:11:00,
2013-02-12 16:21:00,78.0,78.0,29.98,South,190,9.0,13.0,100,0.00,,,0.00,,2013-02-12 21:21:00,
2013-02-12 16:31:00,76.0,76.0,29.97,SSE,154,11.0,16.0,100,0.00,,,0.00,,2013-02-12 21:31:00,
2013-02-12 16:42:00,75.0,75.0,29.98,SSE,168,9.0,15.0,100,0.00,,,0.00,,2013-02-12 21:42:00,
2013-02-12 16:52:00,75.0,75.0,29.98,SSE,168,9.0,15.0,100,0.00,,,0.00,,2013-02-12 21:52:00,
2013-02-12 17:01:00,75.0,75.0,29.97,South,185,2.0,12.0,100,0.00,,,0.00,,2013-02-12 22:01:00,
2013-02-12 17:12:00,75.0,75.0,29.96,SSE,167,8.0,15.0,100,0.00,,,0.00,,2013-02-12 22:12:00,
2013-02-12 17:21:00,75.0,75.0,29.96,SSE,167,8.0,15.0,100,0.00,,,0.00,,2013-02-12 22:21:00,
2013-02-12 17:32:00,74.0,74.0,29.97,SSE,166,10.0,13.0,100,0.00,,,0.00,,2013-02-12 22:32:00,
2013-02-12 17:42:00,73.0,73.0,29.96,South,177,4.0,15.0,100,0.00,,,0.00,,2013-02-12 22:42:00,
2013-02-12 17:52:00,73.0,73.0,29.96,South,177,4.0,15.0,100,0.00,,,0.00,,2013-02-12 22:52:00,
2013-02-12 18:01:00,72.0,72.0,29.96,SSE,149,7.0,12.0,100,0.00,,,0.00,,2013-02-12 23:01:00,
2013-02-12 18:11:00,72.0,72.0,29.97,South,187,8.0,13.0,100,0.00,,,0.00,,2013-02-12 23:11:00,
2013-02-12 18:21:00,72.0,72.0,29.97,South,187,8.0,13.0,100,0.00,,,0.00,,2013-02-12 23:21:00,
2013-02-12 18:32:00,71.0,71.0,29.96,SSE,157,5.0,10.0,100,0.00,,,0.00,,2013-02-12 23:32:00,
2013-02-12 18:42:00,71.0,71.0,29.96,SSE,157,5.0,10.0,100,0.00,,,0.00,,2013-02-12 23:42:00,
2013-02-12 18:52:00,71.0,71.0,29.96,SSE,161,4.0,16.0,100,0.00,,,0.00,,2013-02-12 23:52:00,
2013-02-12 19:02:00,71.0,71.0,29.96,South,183,8.0,12.0,100,0.00,,,0.00,,2013-02-13 00:02:00,
2013-02-12 19:11:00,71.0,71.0,29.96,South,183,8.0,12.0,100,0.00,,,0.00,,2013-02-13 00:11:00,
2013-02-12 19:21:00,71.0,71.0,29.96,South,172,4.0,11.0,100,0.00,,,0.00,,2013-02-13 00:21:00,
2013-02-12 19:32:00,71.0,71.0,29.96,South,181,5.0,15.0,100,0.00,,,0.00,,2013-02-13 00:32:00,
2013-02-12 19:42:00,71.0,71.0,29.96,South,181,5.0,15.0,100,0.00,,,0.00,,2013-02-13 00:42:00,
2013-02-12 19:52:00,70.0,70.0,29.97,South,190,7.0,15.0,100,0.00,,,0.00,,2013-02-13 00:52:00,
2013-02-12 20:01:00,70.0,70.0,29.97,South,185,6.0,10.0,100,0.00,,,0.00,,2013-02-13 01:01:00,
2013-02-12 20:11:00,70.0,70.0,29.97,South,185,6.0,10.0,100,0.00,,,0.00,,2013-02-13 01:11:00,
2013-02-12 20:21:00,70.0,70.0,29.97,South,180,7.0,11.0,100,0.00,,,0.00,,2013-02-13 01:21:00,
2013-02-12 20:31:00,70.0,70.0,29.97,South,172,12.0,17.0,100,0.00,,,0.00,,2013-02-13 01:31:00,
2013-02-12 20:42:00,70.0,70.0,29.97,SSE,158,5.0,9.0,100,0.00,,,0.00,,2013-02-13 01:42:00,
2013-02-12 20:52:00,70.0,70.0,29.97,SSE,158,5.0,9.0,100,0.00,,,0.00,,2013-02-13 01:52:00,
2013-02-12 21:01:00,70.0,70.0,29.98,South,172,6.0,13.0,100,0.00,,,0.00,,2013-02-13 02:01:00,
2013-02-12 21:11:00,70.0,70.0,29.97,South,181,7.0,15.0,100,0.00,,,0.00,,2013-02-13 02:11:00,
2013-02-12 21:22:00,70.0,70.0,29.97,South,181,7.0,15.0,100,0.00,,,0.00,,2013-02-13 02:22:00,
2013-02-12 21:31:00,69.0,69.0,29.98,South,175,10.0,13.0,100,0.00,,,0.00,,2013-02-13 02:31:00,
2013-02-12 21:42:00,69.0,69.0,29.98,South,175,10.0,13.0,100,0.00,,,0.00,,2013-02-13 02:42:00,
2013-02-12 21:52:00,69.0,69.0,29.98,South,190,9.0,14.0,100,0.00,,,0.00,,2013-02-13 02:52:00,
2013-02-12 22:01:00,69.0,69.0,29.98,SSE,153,5.0,10.0,100,0.00,,,0.00,,2013-02-13 03:01:00,
2013-02-12 22:11:00,69.0,69.0,29.98,South,178,8.0,12.0,100,0.00,,,0.00,,2013-02-13 03:11:00,
2013-02-12 22:21:00,69.0,69.0,29.98,South,178,8.0,12.0,100,0.00,,,0.00,,2013-02-13 03:21:00,
2013-02-12 22:32:00,69.0,69.0,29.98,South,178,6.0,12.0,100,0.00,,,0.00,,2013-02-13 03:32:00,
2013-02-12 22:42:00,69.0,69.0,29.98,South,178,6.0,12.0,100,0.00,,,0.00,,2013-02-13 03:42:00,
2013-02-12 22:52:00,69.0,69.0,29.98,SSE,164,5.0,13.0,100,0.00,,,0.00,,2013-02-13 03:52:00,
2013-02-12 23:01:00,69.0,69.0,29.98,South,178,4.0,10.0,100,0.00,,,0.00,,2013-02-13 04:01:00,
2013-02-12 23:11:00,69.0,69.0,29.98,South,178,4.0,10.0,100,0.00,,,0.00,,2013-02-13 04:11:00,
2013-02-12 23:21:00,69.0,69.0,29.97,SSE,167,8.0,12.0,100,0.00,,,0.00,,2013-02-13 04:21:00,
2013-02-12 23:32:00,69.0,69.0,29.98,SE,137,7.0,10.0,100,0.00,,,0.00,,2013-02-13 04:32:00,
2013-02-12 23:41:00,69.0,69.0,29.98,South,179,5.0,11.0,100,0.00,,,0.00,,2013-02-13 04:41:00,
2013-02-12 23:52:00,69.0,69.0,29.98,South,179,5.0,11.0,100,0.00,,,0.00,,2013-02-13 04:52:00,